Content
SEND FEEDBACK

Daily
Averages
Monthly
Summary
United States of America

TUCSON, ARIZONA


Home > North America > United States > Arizona
Elevation: 2584 feet     Latitude: 32 08N     Longitude: 110 56W

WEATHER
 
SELECT A DAY
Number of Records: 110,324;   Date Range: 1/1/02 - 11/24/14
 
SHARE

PRINT THIS DATA

[ ← Previous Day ]
WEATHER ALMANAC - JUNE 28, 2013
[ Next Day → ]
[ °C ]   °F
We're sorry. There is no daily almanac available for Tucson, Arizona on June 28, 2013.
WEATHER BY HOUR - JUNE 28, 2013
[ °C ]   °F
Local TimeTemperatureDewpointHumidityBarometerVisibilityWind DirectionWind SpeedGust SpeedPrecipitationEventsConditions
1:53 AM79.0 °F30.9 °F17 %29.85 in10.0 miSW (220°)6.9 mphClear
2:53 AM79.0 °F32.0 °F18 %29.84 in10.0 miSSW (200°)4.6 mphClear
3:53 AM79.0 °F32.0 °F18 %29.85 in10.0 miSSW (210°)3.5 mphClear
4:53 AM78.1 °F32.0 °F19 %29.85 in10.0 miCalmClear
5:53 AM78.1 °F30.0 °F17 %29.85 in10.0 miSE (130°)6.9 mphClear
6:53 AM82.0 °F32.0 °F16 %29.86 in10.0 miSSW (210°)3.5 mphClear
7:53 AM87.1 °F33.1 °F15 %29.86 in10.0 miCalmClear
8:53 AM93.0 °F35.1 °F13 %29.86 in10.0 miCalmClear
9:53 AM97.0 °F37.0 °F12 %29.85 in10.0 miVariable5.8 mphClear
10:53 AM100.9 °F35.1 °F10 %29.84 in10.0 miNNW (330°)6.9 mphClear
11:53 AM105.1 °F28.9 °F7 %29.82 in10.0 miNNW (330°)4.6 mphClear
12:53 PM108.0 °F30.0 °F7 %29.79 in10.0 miNorth (350°)8.1 mph18.4 mphClear
1:53 PM107.1 °F27.0 °F6 %29.78 in10.0 miNorth (10°)8.1 mphClear
2:53 PM106.0 °F28.0 °F7 %29.75 in10.0 miNorth (350°)8.1 mphClear
3:53 PM108.0 °F28.0 °F6 %29.73 in10.0 miNorthClear
4:06 PM108.0 °F28.0 °F6 %29.90 in10.0 miWNW (300°)4.6 mphClear
4:53 PM108.0 °F28.9 °F6 %29.71 in10.0 miNorth (360°)8.1 mphClear
5:53 PM107.1 °F28.9 °F7 %29.70 in10.0 miNNW (340°)5.8 mphClear
6:53 PM105.1 °F30.9 °F8 %29.70 in10.0 miNNW (340°)10.4 mphClear
7:53 PM102.0 °F33.1 °F9 %29.71 in10.0 miNNW (330°)9.2 mphClear
8:53 PM99.0 °F34.0 °F10 %29.72 in10.0 miNW (310°)5.8 mphClear
9:53 PM99.0 °F36.0 °F11 %29.73 in10.0 miNNW (330°)3.5 mphClear
10:53 PM93.9 °F37.0 °F14 %29.74 in10.0 miSSE (160°)4.6 mphClear
11:53 PM89.1 °F35.1 °F15 %29.75 in10.0 miSSE (150°)5.8 mphClear
Hourly data recorded from KTUS, located miles away from Tucson, Arizona







STORIES FROM OUR PARTNERS